Location: Piotrkow Trybunalski
(51.4000°N, 19.6830°E)
Time: 06:23:34
(UTC+02:00)

A-11 Canister half - Pass Details

Date: 03 June 2024
Orbit: 1525 x 1683 km, 47.3° (Epoch: 14 June)

Event Time Altitude Azimuth Distance (km) Brightness Sun altitude
Rises 01:00:10 0° 286° (WNW) 4,724 11.7 -16.1°
Reaches altitude 10° 01:03:31 10° 278° (W) 3,758 11.1 -16.1°
Maximum altitude 01:11:47 35° 218° (SW) 2,371 9.5 -15.9°
Enters shadow 01:18:30 16° 164° (SSE) 3,390 10.3 -15.8°
